Location: Unspecified
(0.0000°N, 0.0000°E)
Time: 06:00:30
(UTC+00:00)

N. Korean satellite - Pass Details

Date: 12 October 2019
Orbit: 455 x 508 km, 97.2° (Epoch: 14 October)

Event Time Altitude Azimuth Distance (km) Brightness Sun altitude
Rises 05:14:21 0° 21° (NNE) 2,546 10.4 -8.0°
Reaches altitude 10° 05:16:28 10° 28° (NNE) 1,677 9.6 -7.5°
Maximum altitude 05:19:55 44° 101° (E) 694 8.0 -6.6°
Drops below altitude 10° 05:23:27 10° 174° (S) 1,710 9.5 -5.8°
Sets 05:25:36 0° 181° (S) 2,602 10.4 -5.2°
